Location: Brienzwiler
(46.7508°N, 8.1014°E)
Time: 17:12:18
(UTC+00:00)

Cosmos 2218 Rocket - Pass Details

Date: 05 July 2020
Orbit: 955 x 1007 km, 82.9° (Epoch: 10 August)

Event Time Altitude Azimuth Distance (km) Brightness Sun altitude
Exits shadow 22:50:54 34° 161° (SSE) 1,573 4.5 -20.0°
Maximum altitude 22:53:39 63° 93° (E) 1,102 4.2 -20.0°
Drops below altitude 10° 22:59:53 10° 14° (NNE) 2,755 7.4 -20.2°
Sets 23:02:25 0° 12° (NNE) 3,700 8.3 -20.3°
